• Join FlightAware (Why Join?)
  • Login
  • US Flag 
02:25PM EDT


 

Airport Tracker/Info


-or-


 

Live Flight TrackerFlight Track Log ✈ SWA711 ✈ 27-May-2013 ✈ KBWI - KBOS

Flight Track Log - Related Links

Times and Time Zones

All times are in EDT time to prevent confusion due to time zone crossing. See the SWA711 flight status page for this flight to view local times or setup timezone preferences in your user account.

Time Position Orientation Groundspeed Altitude Reporting Facility
EDT Latitude Longitude Course Direction KTS MPH feet Rate Location/Type
08:36AM 39.1667 -76.7333 123° Southeast 210 242 2,800  Level Potomac TRACON
08:38AM 39.1214 -76.6431 123° Southeast 269 310 7,600 2,880 Climbing Washington Center
08:39AM 39.1286 -76.5389 85° East 272 313 10,700 2,880 Climbing Washington Center
08:40AM 39.1378 -76.4158 84° East 302 348 13,500 2,580 Climbing Washington Center
08:41AM 39.1447 -76.2847 86° East 341 392 16,000 1,980 Climbing Washington Center
08:42AM 39.1622 -76.1483 81° East 367 422 17,600 1,980 Climbing Washington Center
08:43AM 39.1794 -76.0119 81° East 382 440 20,100 2,400 Climbing Washington Center
08:44AM 39.2047 -75.8675 77° East 393 452 22,400 2,400 Climbing Washington Center
08:45AM 39.2842 -75.7631 45° Northeast 388 447 24,900 2,400 Climbing Washington Center
08:46AM 39.3678 -75.6561 45° Northeast 395 455 27,200 2,160 Climbing Washington Center
08:47AM 39.4511 -75.5486 45° Northeast 413 475 29,400 1,920 Climbing Washington Center
08:48AM 39.5364 -75.4356 46° Northeast 420 483 31,200 1,860 Climbing Washington Center
08:49AM 39.6217 -75.3247 45° Northeast 431 496 33,200 2,100 Climbing Washington Center
08:50AM 39.7025 -75.2139 47° Northeast 431 496 35,400 1,860 Climbing Washington Center
08:51AM 39.7894 -75.0811 50° Northeast 431 496 37,000 420 Climbing Washington Center
08:53AM 39.9664 -74.8361 47° Northeast 432 497 37,000  Level New York Center
08:54AM 40.0478 -74.7108 50° Northeast 422 486 37,000  Level New York Center
08:55AM 40.1244 -74.5958 49° Northeast 422 486 37,000  Level New York Center
08:56AM 40.2081 -74.4617 51° Northeast 422 486 37,000  Level New York Center
08:58AM 40.3458 -74.2425 50° Northeast 443 510 37,000 -60 Level Boston Center
08:59AM 40.4247 -74.1247 49° Northeast 438 504 36,900 -1,200 Descending Boston Center
09:00AM 40.5014 -74.0067 49° Northeast 433 498 34,600 -2,520 Descending Boston Center
09:01AM 40.5800 -73.8856 49° Northeast 428 493 31,900 -2,460 Descending Boston Center
09:02AM 40.6608 -73.7589 50° Northeast 423 487 29,700 -2,220 Descending Boston Center
09:03AM 40.7247 -73.6478 53° Northeast 423 487 27,600 -2,040 Descending Boston Center
09:04AM 40.7944 -73.5394 50° Northeast 410 472 25,600 -1,800 Descending Boston Center
09:05AM 40.8642 -73.4308 50° Northeast 391 450 24,000 -1,080 Descending Boston Center
09:06AM 40.9422 -73.3167 48° Northeast 386 444 23,500 -540 Descending Boston Center
09:07AM 41.0119 -73.2131 48° Northeast 378 435 23,000 -300 Descending Boston Center
09:08AM 41.0792 -73.1119 49° Northeast 372 428 23,000  Level Boston Center
09:09AM 41.1339 -72.9939 58° Northeast 372 428 23,000  Level Boston Center
09:10AM 41.1825 -72.8703 62° Northeast 372 428 23,000  Level Boston Center
09:11AM 41.2308 -72.7436 63° Northeast 372 428 23,000  Level Boston Center
09:12AM 41.2792 -72.6197 63° Northeast 372 428 23,000 -300 Level Boston Center
09:13AM 41.3272 -72.4953 63° Northeast 372 428 22,500 -780 Descending Boston Center
09:14AM 41.3750 -72.3681 63° Northeast 372 428 21,500 -1,020 Descending Boston Center
09:15AM 41.4208 -72.2492 63° Northeast 367 422 20,500 -1,020 Descending Boston Center
09:16AM 41.4664 -72.1242 64° Northeast 362 417 19,500 -960 Descending Boston Center
09:17AM 41.5139 -72.0019 63° Northeast 368 423 18,600 -900 Descending Boston Center
09:18AM 41.5611 -71.8769 63° Northeast 368 423 17,700 -900 Descending Boston Center
09:19AM 41.6044 -71.7600 64° Northeast 362 417 16,800 -1,020 Descending Boston Center
09:20AM 41.6472 -71.6400 64° Northeast 362 417 15,700 -1,020 Descending Boston Center
09:21AM 41.6842 -71.5367 64° Northeast 357 411 14,800 -1,020 Descending Boston Center
09:22AM 41.7331 -71.4108 62° Northeast 343 395 13,700 -1,020 Descending Boston Center
09:23AM 41.7736 -71.3128 61° Northeast 343 395 12,800 -1,020 Descending Boston Center
09:24AM 41.8244 -71.1947 60° Northeast 327 376 11,700 -960 Descending Boston Center
09:25AM 41.8653 -71.0992 60° Northeast 327 376 11,000 -840 Descending Boston Center
09:26AM 41.9333 -71.0333 36° Northeast 292 336 10,200 -1,260 Descending KA90
09:27AM 42.0000 -70.9833 29° Northeast 289 333 8,700 -1,620 Descending KA90
09:28AM 42.0667 -70.9167 37° Northeast 276 318 7,000 -1,860 Descending KA90
09:29AM 42.1167 -70.8667 37° Northeast 272 313 5,100 -1,260 Descending KA90
09:30AM 42.1833 -70.8333 20° North 240 276 4,500 -900 Descending KA90
09:31AM 42.2333 -70.8333 360° North 192 221 3,300 -1,080 Descending KA90
09:32AM 42.2667 -70.8833 312° West 148 170 2,400 -840 Descending KA90
09:33AM 42.3000 -70.9167 324° Northwest 144 166 1,600 -720 Descending KA90
09:34AM 42.3333 -70.9500 324° Northwest 136 157 800 7,020 Descending KA90
09:36AM 42.3917 -71.0372 312° West 150 173 23,000 11,580 Climbing Boston Center